When you browse on this site, cookies collect data to enhance your experience and personalize the content and advertising you see.
Visit our Privacy Policy to learn more. By continuing to use the site, you agree to this use of cookies and data.
  • In Hungary
  • List of Countries
  • For 7 days
  • Water Temperature
  • Satellite Maps
  • Weather Map
  • News
  • Weather Widgets
  • user-avatar
    Login

    Hourly Weather Statesboro

    Today, 14 December, Friday

    Time Temperature Precipitation Wind Pressure Humidity
    00:00 +14°C° 0.3 mm 4 mps 759 mmHg 91%
    01:00 +13°C° 0 mm 3 mps 759 mmHg 93%
    02:00 +13°C° 1.7 mm 3 mps 759 mmHg 95%
    03:00 +13°C° 1.7 mm 3 mps 758 mmHg 96%
    04:00 +14°C° 1.7 mm 3 mps 758 mmHg 97%
    05:00 +14°C° 2.6 mm 3 mps 758 mmHg 98%
    06:00 +15°C° 2.6 mm 2 mps 758 mmHg 98%
    07:00 +15°C° 2.6 mm 2 mps 758 mmHg 98%
    08:00 +16°C° 3.4 mm 2 mps 758 mmHg 98%
    09:00 +16°C° 3.4 mm 2 mps 757 mmHg 98%
    10:00 +16°C° 3.4 mm 2 mps 757 mmHg 98%
    11:00 +17°C° 2.9 mm 2 mps 757 mmHg 97%
    12:00 +17°C° 2.9 mm 3 mps 756 mmHg 97%
    13:00 +17°C° 2.9 mm 3 mps 756 mmHg 97%
    14:00 +18°C° 1.2 mm 3 mps 755 mmHg 97%
    15:00 +18°C° 1.2 mm 2 mps 755 mmHg 97%
    16:00 +19°C° 1.2 mm 2 mps 754 mmHg 97%
    17:00 +19°C° 1.4 mm 2 mps 754 mmHg 97%
    18:00 +19°C° 1.4 mm 2 mps 754 mmHg 98%
    19:00 +19°C° 1.4 mm 2 mps 754 mmHg 98%
    20:00 +19°C° 2.9 mm 2 mps 754 mmHg 98%
    21:00 +19°C° 2.9 mm 2 mps 754 mmHg 98%
    22:00 +19°C° 2.9 mm 2 mps 754 mmHg 98%
    23:00 +19°C° 6.3 mm 2 mps 754 mmHg 96%

    Tomorrow, 15 December, Saturday

    Time Temperature Precipitation Wind Pressure Humidity
    00:00 +19°C° 6.3 mm 2 mps 754 mmHg 93%
    01:00 +18°C° 6.3 mm 3 mps 754 mmHg 91%
    02:00 +18°C° 0.1 mm 2 mps 754 mmHg 90%
    03:00 +18°C° 0.1 mm 2 mps 754 mmHg 90%
    04:00 +18°C° 0.1 mm 1 mps 754 mmHg 90%
    05:00 +18°C° 0.1 mm 1 mps 754 mmHg 91%
    06:00 +17°C° 0.1 mm 2 mps 754 mmHg 93%
    07:00 +17°C° 0.1 mm 2 mps 755 mmHg 94%
    08:00 +17°C° 0.2 mm 3 mps 755 mmHg 90%
    09:00 +18°C° 0.2 mm 3 mps 755 mmHg 85%
    10:00 +18°C° 0.2 mm 4 mps 755 mmHg 81%
    11:00 +19°C° 0 mm 4 mps 755 mmHg 74%
    12:00 +20°C° 0 mm 5 mps 755 mmHg 68%
    13:00 +21°C° 0 mm 5 mps 755 mmHg 61%
    14:00 +20°C° 0 mm 5 mps 755 mmHg 62%
    15:00 +20°C° 0 mm 4 mps 754 mmHg 63%
    16:00 +20°C° 0 mm 4 mps 754 mmHg 64%
    17:00 +18°C° 0 mm 3 mps 755 mmHg 70%
    18:00 +17°C° 0 mm 3 mps 755 mmHg 75%
    19:00 +16°C° 0 mm 2 mps 755 mmHg 81%
    20:00 +15°C° 0 mm 2 mps 756 mmHg 83%
    21:00 +15°C° 0 mm 2 mps 756 mmHg 85%
    22:00 +14°C° 0 mm 2 mps 757 mmHg 87%
    23:00 +14°C° 0 mm 2 mps 757 mmHg 86%

    Day after tomorrow, 16 December, Sunday

    Time Temperature Precipitation Wind Pressure Humidity
    00:00 +14°C° 0 mm 2 mps 757 mmHg 84%
    01:00 +13°C° 0 mm 2 mps 757 mmHg 83%
    02:00 +13°C° 0 mm 2 mps 757 mmHg 85%
    03:00 +12°C° 0 mm 2 mps 757 mmHg 87%
    04:00 +12°C° 0 mm 2 mps 757 mmHg 89%
    05:00 +12°C° 0 mm 2 mps 757 mmHg 90%
    06:00 +10°C° 0 mm 2 mps 758 mmHg 92%
    07:00 +10°C° 0 mm 2 mps 758 mmHg 94%
    08:00 +11°C° 0 mm 3 mps 758 mmHg 89%
    09:00 +12°C° 0 mm 3 mps 759 mmHg 83%
    10:00 +13°C° 0 mm 3 mps 759 mmHg 78%
    11:00 +14°C° 0 mm 3 mps 759 mmHg 73%
    12:00 +15°C° 0 mm 4 mps 758 mmHg 68%
    13:00 +17°C° 0 mm 4 mps 758 mmHg 63%
    14:00 +17°C° 0 mm 4 mps 758 mmHg 64%
    15:00 +17°C° 0 mm 4 mps 757 mmHg 65%
    16:00 +15°C° 0 mm 4 mps 757 mmHg 66%
    17:00 +14°C° 0 mm 3 mps 758 mmHg 71%
    18:00 +13°C° 0 mm 3 mps 758 mmHg 76%
    19:00 +12°C° 0 mm 2 mps 758 mmHg 81%
    20:00 +12°C° 0 mm 2 mps 759 mmHg 82%
    21:00 +10°C° 0 mm 2 mps 759 mmHg 84%
    22:00 +10°C° 0 mm 2 mps 759 mmHg 86%
    23:00 +9°C° 0 mm 2 mps 759 mmHg 87%

    17 December, Monday

    Time Temperature Precipitation Wind Pressure Humidity
    00:00 +9°C° 0 mm 2 mps 759 mmHg 88%
    01:00 +9°C° 0 mm 2 mps 759 mmHg 89%
    02:00 +9°C° 0 mm 2 mps 759 mmHg 90%
    03:00 +8°C° 0 mm 2 mps 758 mmHg 92%
    04:00 +8°C° 0 mm 2 mps 758 mmHg 93%
    05:00 +8°C° 0 mm 2 mps 759 mmHg 93%
    06:00 +9°C° 0 mm 1 mps 759 mmHg 93%
    07:00 +8°C° 0 mm 1 mps 759 mmHg 93%
    08:00 +10°C° 0 mm 1 mps 759 mmHg 86%
    09:00 +11°C° 0 mm 1 mps 760 mmHg 80%
    10:00 +13°C° 0 mm 1 mps 760 mmHg 73%
    11:00 +14°C° 0 mm 1 mps 759 mmHg 67%
    12:00 +16°C° 0 mm 2 mps 759 mmHg 61%
    13:00 +18°C° 0 mm 2 mps 758 mmHg 55%
    14:00 +18°C° 0 mm 2 mps 758 mmHg 55%
    15:00 +18°C° 0 mm 2 mps 758 mmHg 55%
    16:00 +18°C° 0 mm 2 mps 757 mmHg 55%
    17:00 +16°C° 0 mm 2 mps 758 mmHg 60%
    18:00 +14°C° 0 mm 2 mps 758 mmHg 64%
    19:00 +13°C° 0 mm 2 mps 758 mmHg 68%
    20:00 +12°C° 0 mm 2 mps 758 mmHg 69%
    21:00 +12°C° 0 mm 2 mps 758 mmHg 69%
    22:00 +10°C° 0 mm 2 mps 758 mmHg 69%
    23:00 +9°C° 0 mm 2 mps 758 mmHg 70%

    18 December, Tuesday

    Time Temperature Precipitation Wind Pressure Humidity
    00:00 +9°C° 0 mm 2 mps 758 mmHg 70%
    01:00 +8°C° 0 mm 2 mps 758 mmHg 70%
    02:00 +8°C° 0 mm 2 mps 758 mmHg 71%
    03:00 +7°C° 0 mm 2 mps 758 mmHg 71%
    04:00 +8°C° 0 mm 1 mps 758 mmHg 72%
    05:00 +8°C° 0 mm 1 mps 759 mmHg 73%
    06:00 +7°C° 0 mm 1 mps 759 mmHg 75%
    07:00 +7°C° 0 mm 1 mps 759 mmHg 76%
    08:00 +9°C° 0 mm 1 mps 760 mmHg 74%
    09:00 +9°C° 0 mm 2 mps 760 mmHg 72%
    10:00 +12°C° 0 mm 2 mps 761 mmHg 70%
    11:00 +13°C° 0 mm 2 mps 760 mmHg 65%
    12:00 +15°C° 0 mm 2 mps 760 mmHg 60%
    13:00 +16°C° 0 mm 2 mps 760 mmHg 55%
    14:00 +16°C° 0 mm 2 mps 759 mmHg 56%
    15:00 +16°C° 0 mm 2 mps 759 mmHg 56%
    16:00 +17°C° 0 mm 2 mps 759 mmHg 56%
    17:00 +15°C° 0 mm 2 mps 760 mmHg 61%
    18:00 +14°C° 0 mm 2 mps 760 mmHg 66%
    19:00 +12°C° 0 mm 2 mps 760 mmHg 71%
    20:00 +12°C° 0 mm 2 mps 760 mmHg 71%
    21:00 +10°C° 0 mm 2 mps 761 mmHg 71%
    22:00 +10°C° 0 mm 2 mps 761 mmHg 71%
    23:00 +10°C° 0 mm 2 mps 761 mmHg 71%

    19 December, Wednesday

    Time Temperature Precipitation Wind Pressure Humidity
    00:00 +9°C° 0 mm 2 mps 761 mmHg 72%
    01:00 +9°C° 0 mm 2 mps 761 mmHg 72%
    02:00 +9°C° 0 mm 2 mps 761 mmHg 73%
    03:00 +9°C° 0 mm 2 mps 761 mmHg 74%
    04:00 +9°C° 0 mm 2 mps 761 mmHg 74%
    05:00 +9°C° 0 mm 2 mps 761 mmHg 75%
    06:00 +9°C° 0 mm 2 mps 761 mmHg 76%
    07:00 +9°C° 0 mm 2 mps 762 mmHg 77%
    08:00 +10°C° 0 mm 2 mps 762 mmHg 74%
    09:00 +12°C° 0 mm 2 mps 762 mmHg 72%
    10:00 +12°C° 0 mm 3 mps 762 mmHg 70%
    11:00 +15°C° 0 mm 2 mps 762 mmHg 68%
    12:00 +17°C° 0 mm 2 mps 761 mmHg 65%
    13:00 +18°C° 0 mm 2 mps 760 mmHg 63%
    14:00 +19°C° 0 mm 1 mps 760 mmHg 64%
    15:00 +20°C° 0 mm 1 mps 760 mmHg 65%
    16:00 +18°C° 0 mm 0 mps 760 mmHg 67%
    17:00 +18°C° 0 mm 1 mps 760 mmHg 72%
    18:00 +16°C° 0 mm 1 mps 760 mmHg 77%
    19:00 +15°C° 0 mm 1 mps 760 mmHg 82%
    20:00 +14°C° 0 mm 1 mps 760 mmHg 84%
    21:00 +14°C° 0 mm 1 mps 760 mmHg 86%
    22:00 +14°C° 0 mm 1 mps 760 mmHg 88%
    23:00 +13°C° 0 mm 1 mps 759 mmHg 90%
    Show more